Back to catalog

SL-8 DEB

LostLEO
NORAD 23264·DEBRIS·🇷🇺 Russia

Launched Feb 12, 1991 from Plesetsk Cosmodrome

Loading…

Next Passes (next 24 hours)

TLE

StaleSource: Space-Track

Epoch: Aug 26, 2020, 14:34 UTC

1 23264U 91009CV  20239.60704755 -.00000005  00000-0  10000-3 0  9996
2 23264  74.0784 210.4004 0250271 272.5841  84.6925 12.12616859176702

Track SL-8 DEB in real time with AllMySat

Download on the App Store